Home   Weather   Township of Washington   Past weeks
Flag for USA

Past Weather in Township of Washington, Kansas, USA — Yesterday and Last 2 Weeks

Now
34 °F

Passing clouds.


Feels Like: 29 °F
Forecast: 43 / 29 °F
Wind: 6 mph from East

Location: Forbes Field

Current Time: Feb 21, 2019 at 8:28:53 pm

Latest Report: Feb 21, 2019 at 7:53 pm


Visibility: 10 mi

Pressure: 30.17 "Hg

Humidity: 61%

Dew Point: 22 °F

Location of Township of WashingtonLocation

Past Weather in Township of Washington — Graph

°F

Township of Washington Temperature Yesterday

Maximum temperature yesterday: 36 °F (at 3:53 pm)
Minimum temperature yesterday: 22 °F (at 10:53 pm)
Average temperature yesterday: 30 °F

High & Low Weather Summary for the Past Weeks

 TemperatureHumidityPressure
High54 °F (Feb 14, 12:53 pm)97% (Feb 10, 9:53 pm)30.79 "Hg (Feb 10, 9:53 pm)
Low6 °F (Feb 8, 6:53 am)40% (Feb 8, 3:53 pm)29.44 "Hg (Feb 14, 4:53 am)
Average25 °F76%30.10 "Hg
* Reported Feb 6 6:53 pm — Feb 21 6:53 pm, Township of Washington. Weather by CustomWeather, © 2019

Note: Actual official high and low records may vary slightly from our data, if they occured in-between our weather recording intervals... More about our weather records

Advertising

Township of Washington Weather History for the Previous 24 Hours

Scroll right to see more
 ConditionsComfort  
Time TempWeatherWind HumidityBarometerVisibility
6:53 pm
Thu, Feb 21
37 °FClear.9 mph57%30.17 "Hg10 mi
5:53 pm38 °FPartly sunny.9 mph55%30.16 "Hg10 mi
4:53 pm40 °FScattered clouds.12 mph45%30.16 "Hg10 mi
3:53 pm41 °FSunny.15 mph49%30.16 "Hg10 mi
2:53 pm40 °FSunny.14 mph49%30.14 "Hg10 mi
1:53 pm40 °FSunny.13 mph51%30.14 "Hg9 mi
12:53 pm40 °FSunny.12 mph45%30.14 "Hg10 mi
10:53 am35 °FSunny.8 mph67%30.18 "Hg8 mi
9:53 am33 °FSunny.5 mph75%30.20 "Hg3 mi
9:11 am29 °FSunny.5 mph79%30.17 "Hg3 mi
8:53 am27 °FSunny.3 mph78%30.21 "Hg2 mi
8:34 am24 °FScattered clouds.3 mph77%30.17 "Hg2 mi
8:20 am24 °FIce fog.3 mph77%30.17 "Hg1 mi
7:44 am21 °FIce fog.5 mph78%30.14 "Hg0 mi
7:33 am20 °FScattered clouds.3 mph78%30.14 "Hg2 mi
6:53 am17 °FHaze.3 mph74%30.15 "Hg3 mi
6:25 am18 °FIce fog.No wind77%30.10 "Hg0 mi
6:07 am18 °FIce fog.No wind77%30.10 "Hg1 mi
5:53 am18 °FIce fog.No wind77%30.12 "Hg0 mi
5:37 am18 °FIce fog.No wind77%30.09 "Hg0 mi
5:14 am17 °FLow clouds.No wind74%30.08 "Hg1 mi
4:53 am17 °FIce fog.No wind80%30.11 "Hg0 mi
4:37 am16 °FIce fog.No wind84%30.07 "Hg0 mi
4:12 am14 °FClear.No wind80%30.06 "Hg0 mi
4:04 am15 °FIce fog.No wind83%30.06 "Hg1 mi
3:53 am14 °FIce fog.No wind92%30.09 "Hg1 mi
3:37 am14 °FIce fog.No wind87%30.06 "Hg3 mi
3:17 am16 °FIce fog.3 mph87%30.06 "Hg1 mi
3:01 am17 °FIce fog.3 mph92%30.06 "Hg0 mi
2:41 am16 °FIce fog.3 mph92%30.06 "Hg0 mi
2:19 am20 °FIce fog.No wind96%30.06 "Hg1 mi
1:53 am20 °FIce fog.No wind89%30.09 "Hg3 mi
12:53 am22 °FIce fog.No wind89%30.07 "Hg4 mi
11:53 pm
Wed, Feb 20
24 °FClear.9 mph84%30.05 "Hg7 mi
10:53 pm22 °FClear.8 mph85%30.03 "Hg8 mi
Weather by CustomWeather, © 2019

See weather overview